This demonstration page uses our WeatherBlox Daily Observations layout. Learn more.

Left ArrowRight Arrow

Hourly Observations for September 3, 2021

Temp ( °F °C ) Dew Point ( °F °C ) Humidity (%) Winds ( mph kmh ) Pressure ( in mb ) Visibility ( mi km ) Precip ( " mm )
12:59 am 00:59 Mostly Clear 67 19.4 58 14.4 73 73 Calm 30.02 1017 10 16 0.00 0.00
1:59 am 01:59 Partly Cloudy 68 20 59 15 73 73 VRB 3 6 30.01 1016 10 16 0.00 0.00
2:59 am 02:59 Partly Cloudy 74 23.3 54 12.2 50 50 NE 9 15 30.00 1016 10 16 0.00 0.00
3:59 am 03:59 Mostly Clear 72 22.2 53 11.7 52 52 NE 7 11 30.00 1016 10 16 0.00 0.00
4:59 am 04:59 Clear 72 22.2 53 11.7 52 52 NE 9 15 30.00 1016 10 16 0.00 0.00
5:59 am 05:59 Mostly Clear 72 22.2 50 10 46 46 NE 9 15 30.01 1016 10 16 0.00 0.00
6:59 am 06:59 Mostly Sunny 70 21.1 58 14.4 66 66 NNW 12 19 30.03 1017 10 16 0.00 0.00
7:59 am 07:59 Mostly Sunny 72 22.2 60 15.6 66 66 N 9 15 30.04 1017 10 16 0.00 0.00
8:59 am 08:59 Partly Cloudy 74 23.3 62 16.7 67 67 NNW 10 17 30.06 1018 10 16 0.00 0.00
9:59 am 09:59 Partly Cloudy 76 24.4 62 16.7 62 62 NE 14 22 30.08 1019 10 16 0.00 0.00
10:59 am 10:59 Partly Cloudy 77 25 58 14.4 52 52 ENE 10 17 30.09 1019 10 16 0.00 0.00
11:59 am 11:59 Partly Cloudy 77 25 60 15.6 56 56 NE 14 22 30.09 1019 10 16 0.00 0.00
12:59 pm 12:59 Partly Cloudy 77 25 58 14.4 52 52 NNE 7 11 30.09 1019 10 16 0.00 0.00
1:59 pm 13:59 Partly Cloudy 77 25 57 13.9 50 50 NE 9 15 30.08 1019 10 16 0.00 0.00
2:59 pm 14:59 Partly Cloudy 77 25 57 13.9 50 50 NNE 8 13 30.06 1018 10 16 0.00 0.00
3:59 pm 15:59 Partly Cloudy 77 25 57 13.9 50 50 NNE 10 17 30.04 1017 10 16 0.00 0.00
4:59 pm 16:59 Mostly Sunny 76 24.4 58 14.4 54 54 NNE 6 9 30.04 1017 10 16 0.00 0.00
5:59 pm 17:59 Mostly Sunny 76 24.4 58 14.4 54 54 NE 8 13 30.05 1018 10 16 0.00 0.00
6:59 pm 18:59 Mostly Sunny 75 23.9 58 14.4 55 55 NNE 5 7 30.05 1018 10 16 0.00 0.00
7:59 pm 19:59 Mostly Clear 73 22.8 57 13.9 57 57 NE 6 9 30.06 1018 10 16 0.00 0.00
8:59 pm 20:59 Mostly Clear 73 22.8 57 13.9 57 57 ENE 8 13 30.08 1019 10 16 0.00 0.00
9:59 pm 21:59 Mostly Clear 73 22.8 57 13.9 57 57 NE 8 13 30.09 1019 10 16 0.00 0.00
10:59 pm 22:59 Mostly Clear 73 22.8 57 13.9 57 57 NE 7 11 30.09 1019 10 16 0.00 0.00
11:59 pm 23:59 Mostly Clear 72 22.2 56 13.3 57 57 ENE 5 7 30.09 1019 10 16 0.00 0.00

Powered by AerisWeather